Wind_Speed
35 32 30 28 24 21 19 18 16 14 13 10 10 10 12 15 17 19 21 23 26 29 30 32 35 37 37 39 37 36 38 39 37 34 33 30 30 27 32 31 32 41 50 39 41 39 38
36 34 32 28 25 22 20 18 16 13 11 10 10 12 15 17 18 20 22 25 29 32 33 35 37 39 42 45 34 39 38 41 43 38 37 31 33 29 34 30 32 41 43 43 41 40 39
39 37 31 28 25 22 20 18 16 13 11 10 11 13 17 19 21 23 26 29 31 33 34 36 38 41 46 46 42 43 38 35 31 32 35 37 27 27 36 34 35 33 40 45 43 46 43
41 34 28 27 24 22 20 18 16 13 11 11 12 14 17 20 22 26 29 31 34 35 37 38 43 43 51 49 42 40 38 39 37 35 35 36 36 33 34 36 34 32 37 44 51 40 41
46 33 27 26 23 22 21 19 16 13 12 12 13 15 19 22 26 29 32 34 36 38 43 45 45 44 53 41 44 27 22 23 19 20 26 29 30 36 29 35 39 40 39 45 47 40 38
51 45 29 25 24 22 22 19 15 13 13 12 13 16 20 24 28 32 35 37 38 43 48 52 39 38 46 29 14 24 24 20 25 23 19 24 27 34 37 38 39 39 39 39 39 30 38
50 48 31 26 24 22 22 18 15 15 13 12 13 16 21 25 30 35 38 40 45 46 49 48 47 45 51 45 49 47 38 30 31 32 31 26 34 44 49 43 40 39 39 37 35 31 28
44 45 31 26 25 26 22 20 17 15 12 11 13 17 22 26 30 34 38 42 44 47 61 47 25 26 23 20 26 24 20 24 24 32 31 32 44 38 37 37 39 41 39 41 31 27 23
40 44 29 26 28 25 24 20 16 13 11 10 14 18 23 27 31 34 38 39 42 48 48 27 13 10 13 13 22 26 15 20 27 34 33 40 38 29 32 37 39 40 42 31 26 20 11
39 37 29 28 29 24 24 18 15 12 9 10 15 19 22 28 30 33 32 37 41 34 19 16 10 21 30 36 31 18 28 37 41 31 31 36 33 32 33 36 37 39 37 23 23 12 4
42 30 28 30 23 27 22 18 15 11 8 11 15 20 24 26 28 30 33 36 26 18 7 16 30 28 31 35 37 40 37 32 20 22 25 39 32 33 30 32 33 32 26 26 17 18 12
33 30 30 26 28 27 21 18 14 9 8 11 15 19 23 27 30 30 30 24 21 9 5 33 29 34 36 34 35 38 27 22 19 19 27 32 26 24 30 28 31 21 9 8 12 12 8
31 31 31 30 31 26 21 18 13 9 9 11 16 18 21 23 22 23 24 22 11 9 28 26 40 35 37 35 39 29 29 12 25 23 25 20 29 19 19 21 22 15 16 6 7 8 8
33 32 29 32 30 26 22 17 12 10 9 12 15 17 19 21 21 20 17 16 6 18 19 27 32 35 28 32 38 31 17 9 14 20 16 22 10 23 18 23 20 24 22 10 7 9 12
29 30 31 32 29 26 22 17 13 10 10 12 14 15 17 18 16 18 17 10 11 19 23 27 33 27 35 41 28 27 21 15 8 17 16 6 11 17 17 17 19 24 26 20 4 7 2
30 31 33 31 29 26 21 17 13 10 10 10 12 14 14 15 13 14 9 8 14 16 18 16 19 23 33 42 33 33 21 6 2 14 15 16 5 9 12 14 20 18 25 10 12 2 0
32 32 32 29 28 24 21 17 13 10 10 9 10 12 11 13 11 10 10 12 14 14 17 14 17 22 26 37 30 29 32 10 8 2 12 5 6 12 16 11 19 22 13 10 7 12 0
28 30 29 29 27 24 20 16 13 11 10 8 8 5 10 10 7 8 8 11 15 13 12 11 13 21 28 31 26 21 36 25 8 19 10 7 3 5 15 6 15 15 18 20 6 1 7
31 29 28 28 27 24 20 16 13 12 10 8 7 8 7 8 3 4 7 7 11 14 12 14 11 21 30 25 18 25 38 19 23 9 4 2 1 2 6 7 17 10 12 18 10 8 3
30 28 28 27 26 23 20 16 14 11 10 9 7 3 8 7 6 4 8 6 12 10 10 17 14 22 23 18 25 23 36 28 18 2 5 4 6 8 6 2 11 9 16 20 7 4 5
26 27 26 26 25 23 20 17 14 13 13 9 8 5 5 3 2 7 6 7 11 14 11 12 14 19 22 18 27 30 32 30 11 2 6 4 8 1 8 8 10 7 11 10 13 10 6
26 26 27 26 25 23 20 17 15 15 12 11 9 5 6 5 5 4 7 6 9 11 12 12 17 20 17 17 18 26 26 21 18 11 8 10 9 12 10 22 18 23 17 16 10 11 14
25 25 26 25 24 21 19 17 16 14 13 11 11 8 5 8 2 5 5 8 12 13 8 11 17 20 15 16 9 14 12 11 16 13 12 17 10 11 14 18 13 23 16 15 20 23 21
24 24 24 24 22 21 20 18 17 15 13 12 13 9 6 5 1 5 7 8 10 11 13 14 16 17 18 13 5 11 11 7 13 9 12 11 7 3 6 4 6 11 16 21 19 18 16
22 22 23 23 22 22 20 18 16 14 13 13 12 9 7 8 2 5 6 8 10 8 9 13 14 19 17 12 12 8 6 4 2 12 11 9 10 6 5 6 17 9 7 16 12 12 11
21 21 22 23 22 21 19 18 15 14 13 13 11 8 9 9 5 5 3 7 7 10 10 10 17 15 14 11 8 5 4 8 5 1 10 10 5 4 3 5 0 5 3 3 3 9 13
20 21 22 23 22 20 19 16 15 14 13 14 10 9 9 12 7 5 4 6 5 8 10 11 16 10 9 7 9 6 5 8 7 10 14 13 10 12 8 5 5 10 1 2 2 5 11
16 20 21 22 21 20 19 17 15 13 14 13 8 9 10 12 14 12 9 5 6 6 9 12 7 9 5 6 6 6 5 7 6 8 11 9 10 9 10 7 4 13 5 2 4 4 5
15 17 20 19 20 20 18 16 14 13 13 13 10 9 11 9 7 9 9 6 9 7 10 3 6 8 7 5 6 5 4 5 8 5 9 7 9 3 6 3 8 10 10 6 2 2 2
Wind_Direction
277 275 279 274 264 256 258 261 261 256 258 266 276 286 298 305 310 313 317 320 322 322 323 321 318 318 315 307 313 306 302 304 296 289 282 277 264 254 254 251 245 239 245 246 248 246 251
267 269 272 265 256 252 254 257 253 248 253 264 278 293 298 304 309 314 321 325 325 323 322 319 317 316 310 303 310 303 299 295 291 287 285 273 264 248 253 255 248 245 250 249 246 244 245
256 260 257 252 249 249 252 247 237 239 247 262 279 290 296 303 313 322 326 326 322 318 317 314 312 309 303 307 304 299 291 282 280 276 270 265 252 249 247 247 249 254 253 248 245 243 242
253 245 241 240 240 245 246 234 232 237 247 265 277 288 298 309 320 324 324 321 316 315 314 314 311 307 303 308 302 303 293 281 275 270 264 260 245 239 247 251 251 248 246 249 241 239 242
257 237 230 236 237 242 235 227 230 237 250 263 279 294 305 317 323 324 320 317 315 316 313 316 315 311 308 307 306 316 303 285 278 267 267 257 249 238 244 240 243 239 245 237 247 240 241
261 248 219 228 236 236 226 224 229 238 252 267 286 303 314 321 324 322 320 318 318 319 319 327 324 312 311 305 281 242 251 255 267 274 260 249 244 240 233 227 227 232 234 237 244 241 235
258 260 212 217 228 226 221 224 230 241 254 274 296 311 316 324 325 324 320 323 323 332 322 322 315 288 288 280 272 267 272 270 259 259 257 247 238 230 228 225 229 234 235 239 236 239 245
255 253 208 212 221 219 214 222 228 240 256 280 304 316 323 327 326 325 327 333 335 331 323 332 321 320 336 327 297 304 304 274 265 257 253 250 249 236 234 233 232 236 241 250 254 249 252
255 249 197 207 215 206 218 219 229 241 261 291 311 322 326 327 328 330 335 338 336 331 327 354 343 351 319 321 318 302 288 283 271 259 245 240 249 233 231 233 232 231 238 242 250 246 263
251 220 190 206 205 209 213 218 229 242 267 301 317 324 327 328 330 336 344 339 337 338 331 16 5 319 317 331 311 316 305 298 286 254 244 239 244 245 230 227 226 234 228 232 240 246 260
236 184 194 204 198 211 211 215 225 242 275 304 318 323 326 331 335 340 345 341 350 351 328 351 327 320 315 310 301 298 292 283 264 254 226 238 236 246 243 222 224 232 233 218 232 233 262
188 184 196 193 202 207 209 216 224 243 279 306 316 321 330 337 336 350 348 351 3 343 330 329 329 326 320 320 312 308 306 260 237 249 231 242 236 240 229 219 214 222 190 200 215 229 242
180 188 191 200 205 204 208 215 225 247 279 303 313 324 334 337 345 348 355 21 332 357 328 330 334 335 327 321 323 327 315 277 229 215 226 242 257 224 215 221 206 190 170 191 193 214 231
186 192 199 205 203 203 208 215 227 249 280 300 311 329 334 337 345 354 4 7 342 334 333 331 335 334 341 344 344 344 338 267 225 210 207 224 218 206 189 204 187 191 191 184 194 209 223
183 192 200 203 201 203 206 213 226 248 277 295 314 326 329 342 351 359 39 29 354 330 326 336 345 350 349 350 343 343 323 284 231 211 232 257 241 187 195 178 180 194 204 210 294 242 154
201 201 202 201 200 202 204 211 224 247 271 295 311 325 330 344 352 357 38 13 340 335 331 343 355 354 340 353 354 352 343 30 208 205 233 284 140 164 176 184 199 191 200 199 240 252 185
198 200 201 200 200 201 204 211 222 242 268 286 308 324 334 339 347 33 41 342 337 340 349 342 338 335 343 355 352 355 343 347 37 323 251 283 245 170 174 181 182 199 215 202 234 247 225
196 202 198 198 198 200 205 211 222 242 258 279 296 312 318 328 8 14 2 343 337 347 355 354 335 349 351 354 352 348 344 340 332 348 229 249 306 201 208 222 187 206 206 206 279 179 103
204 201 198 198 196 199 203 211 222 238 253 263 273 254 288 317 27 6 333 357 343 348 355 353 354 353 351 352 353 341 352 17 11 335 19 274 24 203 198 204 224 211 221 217 214 314 268
203 199 198 197 196 198 203 209 221 234 244 252 259 244 295 335 328 344 329 346 352 360 348 358 333 355 340 356 355 343 348 358 7 337 280 256 275 270 270 290 188 221 216 209 155 119 286
199 197 197 197 197 198 203 209 217 227 235 240 251 244 247 285 299 300 316 332 339 356 355 346 344 349 347 356 349 0 353 0 41 268 275 259 310 243 232 223 188 168 154 147 93 69 66
197 196 196 197 199 200 205 211 218 225 231 230 232 197 278 264 289 312 302 313 318 334 342 345 341 339 344 342 350 351 342 5 26 24 21 48 23 54 50 121 100 80 53 64 77 59 70
196 198 197 199 201 203 207 211 216 223 229 229 236 242 229 199 293 298 312 295 301 320 327 327 332 331 336 345 7 17 8 323 9 4 34 32 25 54 57 106 87 56 50 87 73 57 55
197 198 197 201 202 205 208 211 215 220 224 232 239 240 220 167 253 279 303 317 310 303 306 328 324 324 330 339 317 342 5 359 22 41 16 12 31 51 125 93 58 83 56 83 75 63 52
200 198 197 202 204 208 208 210 213 215 222 231 235 234 223 191 194 292 304 329 335 322 310 309 311 307 327 354 340 332 308 12 23 38 32 31 46 9 356 139 125 70 60 23 7 44 30
201 197 198 203 206 208 209 210 211 216 221 229 233 230 222 199 174 281 316 323 337 322 323 322 306 308 319 347 328 313 8 5 5 11 27 19 33 8 349 134 173 46 156 287 74 49 21
197 199 200 203 203 206 210 211 214 219 219 227 226 228 227 211 211 225 254 302 317 314 312 308 302 319 311 8 346 356 14 360 1 12 3 14 35 28 11 61 74 24 30 64 355 348 19
197 201 204 204 206 208 209 210 213 213 218 224 227 225 229 227 220 231 248 280 288 301 307 310 327 341 337 31 6 358 353 348 344 40 12 25 355 24 9 29 45 6 350 94 83 33 45
203 204 207 207 209 211 211 208 212 214 219 225 225 228 236 241 240 250 237 263 302 303 321 325 328 337 328 358 332 351 349 351 337 325 24 31 39 36 46 38 12 20 39 65 56 96 96
Height
3092 3092 3092 3092 3093 3092 3093 3093 3093 3092 3093 3092 3093 3092 3092 3092 3092 3090 3088 3085 3081 3078 3076 3072 3068 3066 3064 3060 3061 3059 3055 3054 3056 3056 3055 3055 3055 3058 3054 3057 3062 3060 3053 3063 3064 3068 3068
3086 3086 3087 3087 3088 3088 3089 3090 3090 3090 3090 3090 3090 3090 3090 3090 3088 3086 3083 3079 3075 3071 3069 3067 3063 3061 3057 3052 3056 3050 3048 3047 3045 3045 3043 3046 3046 3050 3048 3050 3052 3051 3053 3054 3057 3059 3061
3077 3078 3079 3081 3083 3084 3086 3087 3086 3086 3087 3087 3087 3088 3088 3087 3085 3081 3076 3074 3071 3069 3066 3063 3059 3054 3048 3044 3043 3039 3038 3034 3034 3034 3034 3036 3039 3041 3039 3039 3040 3045 3045 3043 3047 3047 3050
3068 3068 3071 3075 3078 3080 3082 3083 3083 3083 3084 3084 3085 3085 3084 3081 3077 3074 3071 3069 3067 3065 3060 3057 3051 3044 3033 3035 3029 3027 3025 3024 3023 3023 3022 3025 3027 3029 3031 3034 3034 3035 3037 3034 3031 3039 3042
3060 3061 3065 3070 3073 3076 3077 3079 3079 3080 3081 3082 3083 3082 3079 3075 3072 3069 3066 3064 3060 3056 3050 3047 3040 3032 3023 3021 3017 3015 3014 3013 3012 3012 3012 3014 3017 3017 3023 3023 3024 3024 3019 3021 3024 3033 3037
3050 3052 3055 3064 3069 3071 3073 3074 3076 3077 3078 3079 3079 3078 3074 3071 3068 3064 3061 3057 3054 3047 3039 3032 3023 3022 3013 3014 3013 3008 3005 3006 3008 3006 3006 3007 3009 3008 3010 3010 3005 3012 3015 3016 3018 3026 3029
3041 3044 3047 3056 3062 3066 3069 3070 3072 3074 3074 3074 3075 3073 3070 3066 3063 3059 3055 3050 3044 3037 3029 3028 3022 3011 3002 3003 2997 2996 2996 2996 2998 2999 2998 2999 2999 2991 2989 3000 3004 3008 3010 3009 3013 3016 3020
3031 3035 3039 3050 3056 3061 3064 3066 3067 3069 3069 3070 3070 3068 3065 3063 3059 3055 3049 3041 3035 3029 3011 3018 3005 2999 2996 2993 2989 2992 2994 2992 2990 2987 2991 2992 2980 2987 2995 2998 3000 3003 3005 3005 3009 3010 3014
3022 3026 3033 3043 3050 3054 3059 3061 3063 3064 3065 3066 3066 3063 3062 3059 3056 3049 3042 3036 3029 3021 3013 3009 3004 3003 3001 2996 2992 2989 2990 2987 2982 2980 2980 2979 2977 2983 2988 2991 2994 2996 2999 3001 3007 3010 3005
3012 3017 3027 3037 3044 3050 3054 3057 3059 3061 3061 3062 3061 3060 3059 3054 3052 3044 3038 3032 3025 3017 3011 3013 3008 3003 2999 2994 2990 2985 2985 2984 2972 2970 2973 2973 2975 2977 2981 2983 2988 2990 2994 3000 3004 3005 3006
3004 3011 3023 3032 3039 3046 3050 3052 3054 3056 3057 3058 3057 3056 3053 3050 3045 3040 3035 3028 3022 3018 3013 3012 3009 3002 2996 2994 2984 2977 2973 2967 2964 2966 2970 2963 2969 2969 2972 2977 2982 2986 2990 2995 3000 3002 3005
2997 3009 3019 3027 3034 3040 3045 3048 3050 3051 3053 3053 3053 3052 3048 3044 3038 3033 3031 3026 3021 3021 3011 3009 3006 2998 2989 2985 2977 2965 2958 2959 2960 2963 2963 2961 2966 2967 2969 2974 2979 2985 2985 2993 2999 3003 3003
2996 3005 3012 3023 3029 3035 3040 3044 3045 3047 3049 3049 3049 3047 3044 3041 3038 3034 3029 3024 3024 3022 3022 3011 3000 2994 2988 2978 2968 2961 2951 2949 2952 2956 2959 2963 2958 2959 2966 2971 2976 2980 2989 2994 2999 2999 2988
2993 3001 3010 3018 3025 3030 3035 3039 3041 3044 3045 3045 3044 3043 3041 3037 3034 3030 3027 3024 3024 3027 3021 3012 3003 2993 2988 2977 2965 2957 2951 2950 2952 2955 2959 2961 2959 2957 2959 2967 2971 2978 2984 2985 2984 2985 2982
2992 2999 3007 3014 3019 3024 3030 3034 3037 3039 3040 3041 3040 3039 3037 3034 3031 3028 3025 3027 3028 3026 3021 3008 3001 2993 2985 2981 2974 2963 2957 2953 2955 2957 2959 2959 2955 2959 2964 2967 2972 2976 2981 2987 2985 2980 2981
2989 2995 3002 3008 3014 3020 3024 3029 3032 3035 3037 3036 3036 3035 3033 3031 3029 3028 3028 3026 3028 3026 3018 3012 3007 3001 2994 2983 2974 2970 2962 2958 2961 2962 2959 2961 2959 2961 2963 2968 2972 2977 2985 2987 2984 2977 2973
2985 2991 2998 3004 3010 3015 3020 3024 3027 3030 3033 3033 3033 3031 3030 3029 3026 3027 3025 3026 3026 3023 3018 3014 3009 3005 3000 2992 2983 2977 2971 2964 2959 2964 2962 2960 2961 2965 2965 2966 2969 2975 2977 2981 2983 2980 2975
2982 2988 2993 2999 3005 3010 3016 3020 3023 3026 3029 3029 3029 3029 3029 3027 3025 3025 3027 3026 3024 3021 3017 3015 3011 3005 2999 2993 2985 2983 2976 2967 2960 2955 2958 2963 2963 2963 2965 2967 2970 2974 2975 2979 2979 2974 2976
2979 2984 2989 2995 3001 3006 3011 3016 3019 3022 3025 3025 3025 3026 3026 3024 3023 3024 3026 3026 3023 3019 3017 3013 3011 3007 3002 2996 2991 2985 2976 2968 2966 2963 2962 2962 2964 2966 2967 2971 2968 2971 2974 2975 2978 2977 2975
2975 2980 2985 2990 2997 3002 3007 3011 3015 3018 3020 3022 3023 3022 3024 3021 3020 3021 3023 3023 3021 3018 3015 3013 3011 3008 3005 2998 2995 2988 2979 2971 2969 2966 2965 2966 2966 2967 2966 2965 2968 2970 2970 2973 2978 2983 2982
2970 2976 2981 2987 2993 2997 3002 3006 3009 3014 3017 3017 3018 3020 3020 3019 3020 3020 3021 3020 3020 3018 3017 3015 3011 3009 3004 2998 2992 2987 2980 2974 2971 2968 2969 2970 2967 2965 2964 2965 2969 2967 2969 2972 2976 2982 2983
2967 2972 2977 2983 2989 2993 2998 3002 3007 3010 3012 3015 3017 3017 3017 3017 3018 3019 3020 3019 3019 3018 3017 3014 3012 3008 3004 3000 2997 2988 2984 2981 2977 2974 2973 2973 2969 2967 2961 2965 2968 2968 2974 2978 2984 2985 2984
2964 2969 2974 2979 2985 2990 2995 3000 3003 3007 3009 3010 3011 3012 3014 3017 3019 3020 3020 3018 3018 3016 3015 3014 3011 3008 3003 2998 2995 2992 2988 2985 2981 2980 2978 2974 2975 2973 2973 2974 2975 2980 2986 2986 2986 2987 2989
2960 2965 2970 2975 2981 2987 2992 2997 3001 3002 3004 3007 3007 3009 3011 3015 3017 3018 3016 3016 3016 3015 3013 3011 3011 3006 3002 2998 2995 2992 2990 2987 2988 2985 2983 2980 2979 2978 2980 2978 2982 2990 2989 2988 2988 2990 2991
2958 2962 2967 2972 2978 2984 2989 2994 2997 2999 3001 3004 3004 3007 3008 3011 3014 3016 3014 3014 3013 3014 3013 3011 3009 3004 3000 2997 2994 2992 2991 2990 2989 2988 2986 2984 2981 2981 2980 2981 2988 2989 2989 2990 2992 2992 2992
2955 2960 2965 2971 2976 2980 2986 2990 2993 2996 2999 3001 3002 3003 3006 3009 3011 3012 3012 3013 3011 3011 3010 3009 3006 3002 3000 2997 2995 2994 2992 2992 2991 2990 2990 2987 2985 2983 2981 2983 2987 2992 2991 2992 2993 2995 2995
2953 2957 2962 2967 2972 2977 2982 2986 2991 2994 2996 2998 2999 3001 3003 3006 3007 3008 3010 3009 3010 3009 3008 3007 3003 3001 2999 2997 2997 2995 2993 2994 2993 2991 2989 2987 2986 2986 2985 2986 2993 2993 2993 2994 2995 3003 2996
2951 2956 2961 2965 2970 2974 2979 2984 2988 2990 2993 2995 2997 2998 3000 3001 3004 3005 3006 3007 3008 3008 3007 3005 3004 3001 3000 2999 3000 2998 2997 2997 2996 2994 2993 2991 2991 2991 2990 2991 2995 2995 2994 2995 2999 2998 2998
2950 2954 2958 2962 2968 2972 2977 2981 2985 2988 2991 2993 2996 2996 2997 2999 3003 3003 3004 3005 3005 3005 3005 3004 3006 3004 3002 3002 3001 2999 2999 2999 2999 2996 2995 2996 2997 2999 2999 3000 2999 2998 2998 2998 2998 2998 2998